sat.trackr.live / text

‹ back to catalog

ALSAT-2A

NORAD 36798 · 2010-035D

PAYLOAD ACTIVE UNKNOWN

§ Identity

Operator
Country
ALG
Launch date
2010-07-12
Launch site
SRILR
Launch vehicle
Mass (kg)
RCS (m²)
0.79

External: N2YO · Heavens-Above · Gunter

§ Orbital elements

Epoch: 2026-09-10T04:18:11.274624Z

Period
97.65 min
Inclination
97.7681°
Eccentricity
0.0001351
Mean motion
14.74587338 rev/d
Perigee alt
645.5 km
Apogee alt
647.4 km
Semi-major
7,024.6 km
B*
1.2458e-4
RAAN
252.2641°
Arg perigee
61.8242°
Mean anomaly
298.3103°
Rev number
86,628

§ Raw data

ALSAT-2A1 36798U 10035D   26253.17929716  .00000782  00000+0  12458-3 0  99912 36798  97.7681 252.2641 0001351  61.8242 298.3103 14.74587338866284

JSON: /api/v1/satellites/36798 · /tle

For live sub-satellite position, see the globe view (requires WebGL).

§ Visibility from observer

Set your observer location to see the next 7 days of passes ≥ 10°. The values pass through the URL so the page stays shareable.

No JS? Fill the form by hand. The geolocation button needs JavaScript.

§ Radio — SatNOGS DB

ModeDescriptionDownlinkUplink
BPSK S-band telemetry 2.267 GHz

1 transmitter · refreshed weekly from db.satnogs.org